TJS-7

Last updated on Thu Jul 03 2025 00:02:48 GMT+0000 (Coordinated Universal Time)

1 49115U 21077A 25183.54689968 -.00000117 00000+0 00000+0 0 9999 2 49115 0.4596 88.3997 0001509 53.1813 236.6816 1.00272404 6059
UTC large
Height (km)
Speed (km/s)
/
Latitude / Longitude
Inclination (degrees)
Orbital Period (minutes)
Azimuth
Elevation
Range (km)
Doppler Factor

Next 0 passes for location: London (51.5072 / 0.1276)

Sorry there are no passes over London.